Weather History for Cook, MN

Change the Weather History Date:

Wednesday, November 27, 2013

  Actual Average Record
Temperature  
Mean Temperature 5 °F -  
Max Temperature 15 °F 29 °F 53 °F (1998)
Min Temperature -5 °F 14 °F -20 °F (2014)
Degree Days  
Heating Degree Days 60    
Moisture  
Dew Point 7 °F    
Average Humidity 84    
Maximum Humidity 93    
Minimum Humidity 68    
Precipitation  
Precipitation 0.00 in - - ()
Sea Level Pressure  
Sea Level Pressure 30.19 in    
Wind  
Wind Speed 2 mph (ESE)    
Max Wind Speed 7 mph    
Max Gust Speed -    
Visibility 7 miles    
Events Snow    
Averages and records for this station are not official NWS values.
T = Trace of Precipitation, MM = Missing Value Source: NWS Daily Summary

Daily Weather History Graph

Daily Weather History Graph

Search for Another Location

Airport:

Trip Planner

Search our weather history database for the weather conditions in past years. The results will help you decide how hot, cold, wet, or windy it might be!

Date:

Astronomy

Nov. 27, 2013 Rise Set
Actual Time 7:34 AM CST 4:22 PM CST
Civil Twilight 6:59 AM CST 4:57 PM CST
Nautical Twilight 6:20 AM CST 5:36 PM CST
Astronomical Twilight 5:43 AM CST 6:13 PM CST
Moon 1:12 AM CST (11/27) 1:22 PM CST (11/27)
Length of Visible Light 9h 58m
Length of Day
8h 48m
Waning Crescent, 31% of the Moon is Illuminated
Nov 27
Waning Crescent
Dec 2
New
Dec 9
First Quarter
Dec 17
Full
Dec 25
Last Quarter

Hourly Weather History & Observations

Time (CST) Temp. Windchill Dew Point Humidity Pressure Visibility Wind Dir Wind Speed Gust Speed Precip Events Conditions
12:17 AM 12.2 °F 2.9 °F 6.8 °F 79% 30.34 in 10.0 mi NNE 5.8 mph - N/A   Overcast
12:36 AM 12.2 °F 2.9 °F 6.8 °F 79% 30.33 in 10.0 mi North 5.8 mph - N/A   Overcast
12:56 AM 12.2 °F 6.1 °F 6.8 °F 79% 30.33 in 10.0 mi North 3.5 mph - N/A   Overcast
1:17 AM 12.2 °F 6.1 °F 6.8 °F 79% 30.33 in 10.0 mi NNW 3.5 mph - N/A   Overcast
1:36 AM 12.2 °F 6.1 °F 6.8 °F 79% 30.33 in 10.0 mi NNW 3.5 mph - N/A   Overcast
1:57 AM 12.2 °F - 6.8 °F 79% 30.33 in 10.0 mi Calm Calm - N/A   Overcast
2:17 AM 10.4 °F - 6.8 °F 85% 30.32 in 10.0 mi Calm Calm - N/A   Overcast
2:36 AM 10.4 °F - 6.8 °F 85% 30.32 in 10.0 mi Calm Calm - N/A   Mostly Cloudy
2:57 AM 8.6 °F - 5.0 °F 85% 30.31 in 10.0 mi Calm Calm - N/A   Clear
3:17 AM 6.8 °F - 3.2 °F 85% 30.31 in 10.0 mi Calm Calm - N/A   Clear
3:36 AM 3.2 °F - -0.4 °F 85% 30.31 in 10.0 mi Calm Calm - N/A   Clear
3:57 AM 1.4 °F - -0.4 °F 92% 30.30 in 10.0 mi Calm Calm - N/A   Clear
4:17 AM 1.4 °F - -0.4 °F 92% 30.30 in 10.0 mi Calm Calm - N/A   Clear
4:36 AM -0.4 °F - -2.2 °F 92% 30.30 in 10.0 mi Calm Calm - N/A   Clear
4:57 AM -0.4 °F - -4.0 °F 85% 30.29 in 10.0 mi Calm Calm - N/A   Clear
5:17 AM -2.2 °F - -5.8 °F 85% 30.29 in 10.0 mi Calm Calm - N/A   Clear
5:36 AM -2.2 °F - -5.8 °F 85% 30.29 in 10.0 mi Calm Calm - N/A   Clear
5:57 AM -2.2 °F - -5.8 °F 85% 30.30 in 10.0 mi Calm Calm - N/A   Clear
6:17 AM -2.2 °F - -7.6 °F 78% 30.30 in 10.0 mi Calm Calm - N/A   Scattered Clouds
6:36 AM -2.2 °F - -7.6 °F 78% 30.30 in 10.0 mi Calm Calm - N/A   Scattered Clouds
6:57 AM -4.0 °F - -7.6 °F 85% 30.29 in 10.0 mi Calm Calm - N/A   Clear
7:17 AM -5.8 °F - -7.6 °F 92% 30.29 in 10.0 mi Calm Calm - N/A   Clear
7:36 AM -4.0 °F - -7.6 °F 85% 30.28 in 10.0 mi Calm Calm - N/A   Clear
7:57 AM -4.0 °F - -7.6 °F 85% 30.27 in 10.0 mi Calm Calm - N/A   Clear
8:17 AM -2.2 °F - -7.6 °F 78% 30.27 in 10.0 mi Calm Calm - N/A   Mostly Cloudy
8:36 AM 1.4 °F - -2.2 °F 85% 30.27 in 10.0 mi Calm Calm - N/A   Mostly Cloudy
8:57 AM 5.0 °F - 1.4 °F 85% 30.26 in 10.0 mi Calm Calm - N/A   Scattered Clouds
9:17 AM 8.6 °F - 5.0 °F 85% 30.26 in 10.0 mi Calm Calm - N/A   Clear
9:36 AM 10.4 °F - 6.8 °F 85% 30.26 in 10.0 mi Calm Calm - N/A   Clear
9:57 AM 10.4 °F - 6.8 °F 85% 30.25 in 10.0 mi Calm Calm - N/A   Clear
10:17 AM 12.2 °F 6.1 °F 8.6 °F 85% 30.25 in 10.0 mi ESE 3.5 mph - N/A   Scattered Clouds
10:36 AM 12.2 °F 6.1 °F 8.6 °F 85% 30.23 in 10.0 mi SE 3.5 mph - N/A   Scattered Clouds
10:57 AM 12.2 °F 4.3 °F 8.6 °F 85% 30.23 in 10.0 mi SE 4.6 mph - N/A   Clear
11:17 AM 14.0 °F 6.5 °F 6.8 °F 73% 30.21 in 10.0 mi SE 4.6 mph - N/A   Clear
11:36 AM 15.8 °F 6.1 °F 6.8 °F 68% 30.19 in 10.0 mi SE 6.9 mph - N/A   Clear
11:57 AM 15.8 °F 10.2 °F 6.8 °F 68% 30.18 in 10.0 mi SE 3.5 mph - N/A   Clear
12:16 PM 15.8 °F 10.2 °F 6.8 °F 68% 30.18 in 10.0 mi SSE 3.5 mph - N/A   Clear
12:37 PM 15.8 °F 10.2 °F 8.6 °F 73% 30.16 in 10.0 mi SSE 3.5 mph - N/A   Scattered Clouds
12:56 PM 15.8 °F 7.2 °F 8.6 °F 73% 30.15 in 7.0 mi SE 5.8 mph - N/A Snow Light Snow
1:16 PM 15.8 °F 8.6 °F 10.4 °F 79% 30.15 in 2.0 mi SSE 4.6 mph - N/A Snow Light Snow
1:37 PM 15.8 °F 8.6 °F 10.4 °F 79% 30.14 in 1.5 mi SE 4.6 mph - N/A Snow Light Snow
1:57 PM 15.8 °F 10.2 °F 10.4 °F 79% 30.13 in 1.2 mi SE 3.5 mph - N/A Snow Light Snow
2:16 PM 15.8 °F 10.2 °F 12.2 °F 86% 30.12 in 1.0 mi East 3.5 mph - N/A Snow Light Snow
2:37 PM 15.8 °F 10.2 °F 10.4 °F 79% 30.11 in 1.2 mi SE 3.5 mph - N/A Snow Light Snow
2:56 PM 15.8 °F 10.2 °F 12.2 °F 86% 30.11 in 0.8 mi SSE 3.5 mph - N/A Snow Light Snow
3:16 PM 15.8 °F 10.2 °F 12.2 °F 86% 30.11 in 1.0 mi ESE 3.5 mph - N/A Snow Light Snow
3:37 PM 15.8 °F 10.2 °F 12.2 °F 86% 30.10 in 0.8 mi ESE 3.5 mph - N/A Snow Light Snow
3:56 PM 15.8 °F - 12.2 °F 86% 30.10 in 0.8 mi Calm Calm - N/A Snow Light Snow
4:16 PM 15.8 °F - 12.2 °F 86% 30.10 in 0.8 mi Calm Calm - N/A Snow Light Snow
4:37 PM 15.8 °F - 12.2 °F 86% 30.09 in 1.2 mi Calm Calm - N/A Snow Light Snow
4:56 PM 15.8 °F - 12.2 °F 86% 30.08 in 1.5 mi Calm Calm - N/A Snow Light Snow
5:16 PM 15.8 °F - 12.2 °F 86% 30.09 in 1.8 mi Calm Calm - N/A Snow Light Snow
5:36 PM 15.8 °F 10.2 °F 12.2 °F 86% 30.08 in 2.5 mi East 3.5 mph - N/A Snow Light Snow
5:56 PM 15.8 °F 10.2 °F 12.2 °F 86% 30.08 in 3.0 mi East 3.5 mph - N/A Snow Light Snow
6:17 PM 15.8 °F - 12.2 °F 86% 30.09 in 4.0 mi Calm Calm - N/A Snow Light Snow
6:36 PM 15.8 °F - 12.2 °F 86% 30.09 in 4.0 mi Calm Calm - N/A Snow Light Snow
6:56 PM 15.8 °F - 12.2 °F 86% 30.09 in 2.5 mi Calm Calm - N/A Snow Light Snow
7:17 PM 15.8 °F - 12.2 °F 86% 30.09 in 2.0 mi Calm Calm - N/A Snow Light Snow
7:36 PM 15.8 °F - 14.0 °F 93% 30.09 in 2.0 mi Calm Calm - N/A Snow Light Snow
7:56 PM 15.8 °F - 14.0 °F 93% 30.08 in 2.0 mi Calm Calm - N/A Snow Light Snow
8:17 PM 15.8 °F - 12.2 °F 86% 30.08 in 2.0 mi Calm Calm - N/A Snow Light Snow
8:36 PM 15.8 °F - 12.2 °F 86% 30.07 in 2.5 mi Calm Calm - N/A Snow Light Snow
8:56 PM 15.8 °F - 14.0 °F 93% 30.07 in 4.0 mi Calm Calm - N/A Snow Light Snow
9:17 PM 15.8 °F - 14.0 °F 93% 30.07 in 5.0 mi Calm Calm - N/A Snow Light Snow
9:36 PM 15.8 °F - 14.0 °F 93% 30.06 in 5.0 mi Calm Calm - N/A Snow Light Snow
9:56 PM 15.8 °F - 14.0 °F 93% 30.07 in 7.0 mi Calm Calm - N/A Snow Light Snow
10:16 PM 15.8 °F - 14.0 °F 93% 30.06 in 10.0 mi Calm Calm - N/A Snow Light Snow
10:36 PM 15.8 °F - 12.2 °F 86% 30.06 in 10.0 mi Calm Calm - N/A Snow Light Snow
10:57 PM 15.8 °F - 12.2 °F 86% 30.06 in 10.0 mi Calm Calm - N/A   Overcast
11:16 PM 15.8 °F - 12.2 °F 86% 30.06 in 10.0 mi Calm Calm - N/A Snow Light Snow
11:36 PM 15.8 °F - 12.2 °F 86% 30.06 in 10.0 mi Calm Calm - N/A Snow Light Snow
11:57 PM 15.8 °F - 12.2 °F 86% 30.06 in 7.0 mi Calm Calm - N/A Snow Light Snow